When you browse on this site, cookies collect data to enhance your experience and personalize the content and advertising you see.
Visit our Privacy Policy to learn more. By continuing to use the site, you agree to this use of cookies and data.
  • In Norway
  • List of Countries
  • For 7 days
  • Water Temperature
  • Satellite Maps
  • Weather Map
  • Weather Widgets
  • user-avatar
    Login

    Hourly Weather Tafilah

    Today, 22 January, Tuesday

    Time Temperature Precipitation Wind Pressure Humidity
    00:00 +13°C° 0 mm 1 mps 699 mmHg 35%
    01:00 +12°C° 0 mm 1 mps 698 mmHg 37%
    02:00 +12°C° 0 mm 2 mps 698 mmHg 36%
    03:00 +12°C° 0 mm 1 mps 698 mmHg 39%
    04:00 +11°C° 0 mm 1 mps 698 mmHg 42%
    05:00 +11°C° 0 mm 1 mps 698 mmHg 46%
    06:00 +12°C° 0 mm 1 mps 698 mmHg 42%
    07:00 +13°C° 0 mm 1 mps 698 mmHg 39%
    08:00 +13°C° 0 mm 1 mps 699 mmHg 35%
    09:00 +15°C° 0 mm 2 mps 699 mmHg 32%
    10:00 +16°C° 0 mm 3 mps 699 mmHg 29%
    11:00 +18°C° 0 mm 4 mps 700 mmHg 26%
    12:00 +18°C° 0 mm 4 mps 699 mmHg 25%
    13:00 +18°C° 0 mm 4 mps 699 mmHg 24%
    14:00 +18°C° 0 mm 4 mps 699 mmHg 23%
    15:00 +17°C° 0 mm 3 mps 699 mmHg 26%
    16:00 +16°C° 0 mm 3 mps 698 mmHg 30%
    17:00 +14°C° 0 mm 3 mps 698 mmHg 33%
    18:00 +14°C° 0 mm 2 mps 698 mmHg 39%
    19:00 +13°C° 0 mm 2 mps 699 mmHg 46%
    20:00 +12°C° 0 mm 1 mps 699 mmHg 53%
    21:00 +12°C° 0 mm 1 mps 699 mmHg 57%
    22:00 +11°C° 0 mm 1 mps 699 mmHg 62%
    23:00 +10°C° 0 mm 1 mps 699 mmHg 67%

    Tomorrow, 23 January, Wednesday

    Time Temperature Precipitation Wind Pressure Humidity
    00:00 +10°C° 0 mm 1 mps 699 mmHg 67%
    01:00 +9°C° 0 mm 1 mps 699 mmHg 67%
    02:00 +9°C° 0 mm 1 mps 698 mmHg 68%
    03:00 +9°C° 0 mm 1 mps 698 mmHg 65%
    04:00 +8°C° 0 mm 1 mps 698 mmHg 63%
    05:00 +8°C° 0 mm 1 mps 698 mmHg 60%
    06:00 +9°C° 0 mm 1 mps 698 mmHg 54%
    07:00 +9°C° 0 mm 2 mps 699 mmHg 47%
    08:00 +10°C° 0 mm 3 mps 699 mmHg 41%
    09:00 +12°C° 0 mm 3 mps 699 mmHg 35%
    10:00 +14°C° 0 mm 2 mps 699 mmHg 29%
    11:00 +16°C° 0 mm 2 mps 699 mmHg 23%
    12:00 +17°C° 0 mm 2 mps 699 mmHg 21%
    13:00 +18°C° 0 mm 2 mps 698 mmHg 18%
    14:00 +19°C° 0 mm 2 mps 697 mmHg 16%
    15:00 +19°C° 0 mm 1 mps 697 mmHg 18%
    16:00 +18°C° 0 mm 1 mps 697 mmHg 20%
    17:00 +16°C° 0 mm 1 mps 696 mmHg 21%
    18:00 +15°C° 0 mm 1 mps 696 mmHg 22%
    19:00 +15°C° 0 mm 2 mps 696 mmHg 23%
    20:00 +13°C° 0 mm 3 mps 697 mmHg 23%
    21:00 +13°C° 0 mm 3 mps 697 mmHg 24%
    22:00 +13°C° 0 mm 3 mps 697 mmHg 24%
    23:00 +12°C° 0 mm 3 mps 697 mmHg 25%

    Day after tomorrow, 24 January, Thursday

    Time Temperature Precipitation Wind Pressure Humidity
    00:00 +13°C° 0 mm 2 mps 696 mmHg 24%
    01:00 +13°C° 0 mm 2 mps 696 mmHg 24%
    02:00 +12°C° 0 mm 2 mps 696 mmHg 23%
    03:00 +12°C° 0 mm 2 mps 696 mmHg 23%
    04:00 +11°C° 0 mm 3 mps 696 mmHg 22%
    05:00 +11°C° 0 mm 3 mps 695 mmHg 21%
    06:00 +12°C° 0 mm 3 mps 696 mmHg 20%
    07:00 +13°C° 0 mm 3 mps 696 mmHg 19%
    08:00 +13°C° 0 mm 3 mps 696 mmHg 17%
    09:00 +17°C° 0 mm 3 mps 696 mmHg 15%
    10:00 +19°C° 0 mm 3 mps 696 mmHg 14%
    11:00 +21°C° 0 mm 3 mps 697 mmHg 12%
    12:00 +21°C° 0 mm 3 mps 696 mmHg 12%
    13:00 +22°C° 0 mm 3 mps 696 mmHg 11%
    14:00 +22°C° 0 mm 4 mps 695 mmHg 11%
    15:00 +21°C° 0 mm 3 mps 695 mmHg 14%
    16:00 +20°C° 0 mm 3 mps 695 mmHg 17%
    17:00 +19°C° 0 mm 2 mps 695 mmHg 20%
    18:00 +18°C° 0 mm 3 mps 696 mmHg 23%
    19:00 +17°C° 0 mm 4 mps 696 mmHg 27%
    20:00 +15°C° 0 mm 4 mps 697 mmHg 31%
    21:00 +14°C° 0 mm 4 mps 697 mmHg 35%
    22:00 +12°C° 0 mm 3 mps 697 mmHg 38%
    23:00 +12°C° 0 mm 2 mps 698 mmHg 42%

    25 January, Friday

    Time Temperature Precipitation Wind Pressure Humidity
    00:00 +12°C° 0 mm 2 mps 698 mmHg 47%
    01:00 +11°C° 0 mm 1 mps 698 mmHg 51%
    02:00 +10°C° 0 mm 1 mps 698 mmHg 55%
    03:00 +10°C° 0 mm 1 mps 697 mmHg 56%
    04:00 +10°C° 0 mm 1 mps 697 mmHg 58%
    05:00 +10°C° 0 mm 1 mps 697 mmHg 59%
    06:00 +11°C° 0 mm 1 mps 698 mmHg 55%
    07:00 +11°C° 0 mm 1 mps 698 mmHg 50%
    08:00 +12°C° 0 mm 2 mps 699 mmHg 45%
    09:00 +14°C° 0 mm 2 mps 699 mmHg 40%
    10:00 +16°C° 0 mm 2 mps 699 mmHg 34%
    11:00 +17°C° 0 mm 2 mps 699 mmHg 29%
    12:00 +18°C° 0 mm 2 mps 699 mmHg 30%
    13:00 +19°C° 0 mm 2 mps 698 mmHg 30%
    14:00 +21°C° 0 mm 1 mps 698 mmHg 31%
    15:00 +19°C° 0 mm 2 mps 697 mmHg 32%
    16:00 +19°C° 0 mm 2 mps 697 mmHg 34%
    17:00 +18°C° 0 mm 2 mps 697 mmHg 35%
    18:00 +17°C° 0 mm 2 mps 697 mmHg 37%
    19:00 +16°C° 0 mm 1 mps 698 mmHg 40%
    20:00 +16°C° 0 mm 1 mps 698 mmHg 42%
    21:00 +15°C° 0 mm 1 mps 698 mmHg 44%
    22:00 +15°C° 0 mm 1 mps 697 mmHg 45%
    23:00 +14°C° 0 mm 1 mps 697 mmHg 47%

    26 January, Saturday

    Time Temperature Precipitation Wind Pressure Humidity
    00:00 +14°C° 0 mm 1 mps 697 mmHg 46%
    01:00 +13°C° 0 mm 1 mps 697 mmHg 45%
    02:00 +13°C° 0 mm 1 mps 696 mmHg 44%
    03:00 +12°C° 0 mm 1 mps 696 mmHg 45%
    04:00 +12°C° 0 mm 1 mps 696 mmHg 46%
    05:00 +12°C° 0 mm 1 mps 696 mmHg 48%
    06:00 +13°C° 0 mm 1 mps 696 mmHg 46%
    07:00 +14°C° 0 mm 2 mps 697 mmHg 44%
    08:00 +15°C° 0 mm 2 mps 697 mmHg 42%
    09:00 +17°C° 0 mm 2 mps 697 mmHg 40%
    10:00 +20°C° 0 mm 1 mps 697 mmHg 38%
    11:00 +22°C° 0 mm 1 mps 697 mmHg 36%
    12:00 +21°C° 0 mm 2 mps 696 mmHg 36%
    13:00 +22°C° 0 mm 3 mps 696 mmHg 35%
    14:00 +24°C° 0 mm 3 mps 695 mmHg 35%
    15:00 +22°C° 0.2 mm 3 mps 695 mmHg 41%
    16:00 +21°C° 0.2 mm 2 mps 695 mmHg 46%
    17:00 +20°C° 0.2 mm 2 mps 694 mmHg 52%
    18:00 +20°C° 0.2 mm 1 mps 694 mmHg 57%
    19:00 +19°C° 0.2 mm 1 mps 694 mmHg 63%
    20:00 +18°C° 0.2 mm 1 mps 695 mmHg 68%
    21:00 +18°C° 0 mm 1 mps 695 mmHg 70%
    22:00 +17°C° 0 mm 2 mps 695 mmHg 72%
    23:00 +16°C° 0 mm 2 mps 695 mmHg 73%

    27 January, Sunday

    Time Temperature Precipitation Wind Pressure Humidity
    00:00 +16°C° 0 mm 2 mps 695 mmHg 73%
    01:00 +15°C° 0 mm 2 mps 694 mmHg 73%
    02:00 +14°C° 0 mm 3 mps 694 mmHg 73%
    03:00 +14°C° 0 mm 2 mps 694 mmHg 72%
    04:00 +13°C° 0 mm 2 mps 694 mmHg 71%
    05:00 +10°C° 0 mm 2 mps 694 mmHg 71%
    06:00 +12°C° 0 mm 2 mps 695 mmHg 65%
    07:00 +12°C° 0 mm 2 mps 695 mmHg 60%
    08:00 +13°C° 0 mm 2 mps 696 mmHg 55%
    09:00 +12°C° 0 mm 3 mps 696 mmHg 49%
    10:00 +13°C° 0 mm 4 mps 696 mmHg 43%
    11:00 +14°C° 0 mm 5 mps 696 mmHg 36%
    12:00 +14°C° 0 mm 6 mps 696 mmHg 31%
    13:00 +14°C° 0 mm 7 mps 696 mmHg 27%
    14:00 +13°C° 0 mm 8 mps 696 mmHg 22%
    15:00 +12°C° 0 mm 8 mps 697 mmHg 22%
    16:00 +11°C° 0 mm 7 mps 697 mmHg 23%
    17:00 +10°C° 0 mm 7 mps 698 mmHg 24%
    18:00 +9°C° 0 mm 6 mps 698 mmHg 25%
    19:00 +9°C° 0 mm 5 mps 699 mmHg 26%
    20:00 +8°C° 0 mm 4 mps 700 mmHg 28%
    21:00 +8°C° 0 mm 3 mps 700 mmHg 28%
    22:00 +8°C° 0 mm 3 mps 700 mmHg 28%
    23:00 +7°C° 0 mm 2 mps 700 mmHg 29%
    Show more